Simultaneous Nadir Overpasses (SNOs) Predictions

Prediction of SNOs between NOAA-19 and TERRA Satellite Orbit:

Table of predicted SNOs for the next 14.0 days since TLE Epoch: 6/3/2023
Index Date (NOAA-19) Time (NOAA-19) Lat,Lon (NOAA-19) SZA (NOAA-19 ) Date (TERRA) Time (TERRA) Lat,Lon (TERRA) SZA (TERRA ) Distance(km) Time Diff (sec)
1 06/04/2023 07:26:00 80.92, 102.30 60.15 06/04/2023 07:25:44 80.91, 102.25 60.13 1.17 16
2 06/06/2023 10:25:33 80.91, 57.07 59.87 06/06/2023 10:26:40 80.92, 57.14 59.91 1.72 67
3 06/06/2023 11:16:32 -80.92,-135.35 120.11 06/06/2023 11:16:03 -80.91,-135.38 120.13 0.98 29
4 06/08/2023 14:16:04 -80.91, 179.55 120.34 06/08/2023 14:16:59 -80.91, 179.44 120.33 1.99 55
5 06/08/2023 15:07:03 80.92, -12.92 59.69 06/08/2023 15:06:21 80.91, -12.97 59.66 1.08 42
6 06/10/2023 18:06:36 80.91, -58.25 59.46 06/10/2023 18:07:17 80.90, -58.30 59.46 1.05 41
7 06/10/2023 18:57:33 -80.92, 109.68 120.48 06/10/2023 18:56:39 -80.92, 109.60 120.50 1.43 54
8 06/12/2023 21:57:06 -80.91, 64.10 120.70 06/12/2023 21:57:35 -80.91, 64.20 120.68 1.83 29
9 06/12/2023 22:48:05 80.92,-127.99 59.37 06/12/2023 22:46:56 80.93,-127.95 59.35 1.28 69



Historial Predications of SNOs between NOAA-19 and TERRA
